Waupaca, WI

2:07 PM CST on January 17, 2018 (GMT -0600)
Waupaca Municipal

Weather History for KPCZ - March, 2014

Change the Weather History Date:

Thursday, March 27, 2014

  Actual Average Record
Temperature  
Mean Temperature 36 °F -  
Max Temperature 39 °F 46 °F 70 °F (1968)
Min Temperature 32 °F 26 °F 0 °F (1965)
Degree Days  
Heating Degree Days 30    
Moisture  
Dew Point 32 °F    
Average Humidity 82    
Maximum Humidity 100    
Minimum Humidity 60    
Precipitation  
Precipitation 0.40 in - - ()
Sea Level Pressure  
Sea Level Pressure 29.62 in    
Wind  
Wind Speed 8 mph (ESE)    
Max Wind Speed 12 mph    
Max Gust Speed 18 mph    
Visibility 6 miles    
Events Rain    
Averages and records for this station are not official NWS values.
T = Trace of Precipitation, MM = Missing Value Source: NWS Daily Summary

Daily Weather History Graph

Daily Weather History Graph

Search for Another Location

Airport or City:

Trip Planner

Search our weather history database for the weather conditions in past years. The results will help you decide how hot, cold, wet, or windy it might be!

Date:

Astronomy

Mar. 27, 2014 Rise Set
Actual Time 6:46 AM CDT 7:17 PM CDT
Civil Twilight 6:17 AM CDT 7:46 PM CDT
Nautical Twilight 5:42 AM CDT 8:20 PM CDT
Astronomical Twilight 5:07 AM CDT 8:56 PM CDT
Moon 4:45 AM CDT (3/27) 3:58 PM CDT (3/27)
Length of Visible Light 13h 29m
Length of Day
12h 30m
Waning Crescent, 13% of the Moon is Illuminated
Mar 27
Waning Crescent
Mar 30
New
Apr 7
First Quarter
Apr 15
Full
Apr 22
Last Quarter

Hourly Weather History & Observations

Time (CDT) Temp. Windchill Dew Point Humidity Pressure Visibility Wind Dir Wind Speed Gust Speed Precip Events Conditions
12:17 AM 33.8 °F 25.3 °F 24.8 °F 70% 29.86 in 10.0 mi ESE 11.5 mph - N/A   Overcast
12:37 AM 32.0 °F 24.2 °F 24.8 °F 75% 29.85 in 10.0 mi ESE 9.2 mph - N/A   Overcast
12:57 AM 32.0 °F 24.8 °F 24.8 °F 75% 29.84 in 10.0 mi ESE 8.1 mph - N/A   Overcast
1:17 AM 33.8 °F 26.4 °F 24.8 °F 70% 29.83 in 10.0 mi East 9.2 mph - N/A   Overcast
1:37 AM 33.8 °F 26.4 °F 24.8 °F 70% 29.82 in 10.0 mi ESE 9.2 mph - N/A   Overcast
1:57 AM 33.8 °F 27.0 °F 24.8 °F 70% 29.81 in 10.0 mi ESE 8.1 mph - N/A   Overcast
2:17 AM 33.8 °F 27.0 °F 24.8 °F 70% 29.79 in 10.0 mi ESE 8.1 mph - N/A   Overcast
2:37 AM 33.8 °F 27.7 °F 24.8 °F 70% 29.78 in 10.0 mi ESE 6.9 mph - N/A   Overcast
2:57 AM 35.6 °F 29.9 °F 24.8 °F 65% 29.78 in 10.0 mi SE 6.9 mph - N/A   Overcast
3:17 AM 35.6 °F 30.7 °F 24.8 °F 65% 29.77 in 10.0 mi ESE 5.8 mph - N/A   Overcast
3:37 AM 35.6 °F 30.7 °F 24.8 °F 65% 29.76 in 10.0 mi SE 5.8 mph - N/A   Overcast
3:58 AM 35.6 °F 29.9 °F 24.8 °F 65% 29.75 in 10.0 mi SE 6.9 mph - N/A   Overcast
4:17 AM 35.6 °F 30.7 °F 24.8 °F 65% 29.74 in 10.0 mi SE 5.8 mph - N/A   Overcast
4:37 AM 37.4 °F 32.1 °F 24.8 °F 60% 29.73 in 10.0 mi SE 6.9 mph - N/A   Overcast
4:58 AM 37.4 °F 32.8 °F 24.8 °F 60% 29.72 in 10.0 mi SE 5.8 mph - N/A   Overcast
5:17 AM 37.4 °F 32.8 °F 24.8 °F 60% 29.72 in 10.0 mi SSE 5.8 mph - N/A   Overcast
5:37 AM 39.2 °F 33.0 °F 26.6 °F 61% 29.72 in 10.0 mi South 9.2 mph - N/A   Overcast
5:58 AM 39.2 °F 33.0 °F 26.6 °F 61% 29.72 in 10.0 mi South 9.2 mph - N/A   Overcast
6:17 AM 39.2 °F 33.0 °F 28.4 °F 65% 29.71 in 10.0 mi South 9.2 mph - N/A   Overcast
6:37 AM 39.2 °F 33.6 °F 28.4 °F 65% 29.71 in 10.0 mi South 8.1 mph - N/A   Overcast
6:57 AM 39.2 °F 32.5 °F 28.4 °F 65% 29.71 in 10.0 mi South 10.4 mph - N/A   Overcast
7:37 AM 39.2 °F 32.5 °F 30.2 °F 70% 29.71 in 10.0 mi South 10.4 mph 17.3 mph N/A   Overcast
7:57 AM 37.4 °F 30.3 °F 32.0 °F 81% 29.71 in 7.0 mi South 10.4 mph 16.1 mph N/A   Overcast
8:17 AM 37.4 °F 29.8 °F 32.0 °F 81% 29.71 in 7.0 mi South 11.5 mph 17.3 mph N/A   Overcast
8:37 AM 37.4 °F 29.8 °F 32.0 °F 81% 29.69 in 5.0 mi South 11.5 mph 18.4 mph N/A   Haze
8:57 AM 37.4 °F 29.8 °F 32.0 °F 81% 29.68 in 5.0 mi South 11.5 mph - N/A   Haze
9:18 AM 37.4 °F 29.8 °F 32.0 °F 81% 29.68 in 5.0 mi South 11.5 mph - N/A   Haze
9:57 AM 37.4 °F 31.4 °F 33.8 °F 87% 29.68 in 5.0 mi SSE 8.1 mph 16.1 mph N/A   Haze
10:17 AM 37.4 °F 30.8 °F 33.8 °F 87% 29.68 in 5.0 mi South 9.2 mph - N/A   Light Drizzle
10:37 AM 37.4 °F 31.4 °F 33.8 °F 87% 29.67 in 4.0 mi South 8.1 mph - N/A Rain Light Rain
10:57 AM 37.4 °F 31.4 °F 33.8 °F 87% 29.66 in 3.0 mi South 8.1 mph - N/A Rain Light Rain
11:40 AM 37.4 °F 32.1 °F 35.6 °F 93% 29.64 in 5.0 mi SSE 6.9 mph - N/A   Light Drizzle
11:59 AM 39.2 °F 33.0 °F 35.6 °F 87% 29.64 in 4.0 mi SSE 9.2 mph - N/A   Overcast
12:17 PM 39.2 °F 32.5 °F 35.6 °F 87% 29.63 in 5.0 mi South 10.4 mph - N/A   Overcast
12:39 PM 39.2 °F 35.0 °F 35.6 °F 87% 29.62 in 7.0 mi SSE 5.8 mph - N/A   Overcast
1:17 PM 39.2 °F 34.2 °F 35.6 °F 87% 29.61 in 7.0 mi SSE 6.9 mph - N/A   Overcast
1:37 PM 39.2 °F 34.2 °F 35.6 °F 87% 29.60 in 7.0 mi South 6.9 mph - N/A   Overcast
1:57 PM 39.2 °F 35.0 °F 35.6 °F 87% 29.58 in 7.0 mi SSE 5.8 mph - N/A   Overcast
2:37 PM 39.2 °F 35.0 °F 35.6 °F 87% 29.56 in 1.2 mi SE 5.8 mph - N/A   Drizzle
2:57 PM 39.2 °F 35.9 °F 35.6 °F 87% 29.56 in 1.8 mi SE 4.6 mph - N/A Rain Light Rain
3:17 PM 39.2 °F 34.2 °F 35.6 °F 87% 29.55 in 3.0 mi SE 6.9 mph - 0.01 in Rain Light Rain
3:37 PM 39.2 °F 34.2 °F 35.6 °F 87% 29.53 in 3.0 mi SE 6.9 mph - 0.01 in   Overcast
4:17 PM 37.4 °F 32.1 °F 35.6 °F 93% 29.52 in 3.0 mi SE 6.9 mph - N/A Rain Rain
4:39 PM 39.2 °F 35.0 °F 35.6 °F 87% 29.51 in 2.5 mi ESE 5.8 mph - 0.01 in   Overcast
4:57 PM 37.4 °F 32.8 °F 35.6 °F 93% 29.49 in 1.5 mi ESE 5.8 mph - N/A Rain Light Rain
5:18 PM 37.4 °F 33.8 °F 35.6 °F 93% 29.48 in 1.5 mi ESE 4.6 mph - N/A Rain Light Rain
5:37 PM 37.4 °F 33.8 °F 35.6 °F 93% 29.49 in 1.2 mi ESE 4.6 mph - 0.01 in Rain Rain
5:57 PM 37.4 °F 34.9 °F 35.6 °F 93% 29.47 in 1.0 mi ENE 3.5 mph - N/A Rain Rain
6:17 PM 37.4 °F - 35.6 °F 93% 29.48 in 1.5 mi Calm Calm - 0.02 in Rain Rain
6:37 PM 37.4 °F 34.9 °F 35.6 °F 93% 29.48 in 1.0 mi East 3.5 mph - 0.07 in Rain Rain
6:58 PM 37.4 °F 34.9 °F 35.6 °F 93% 29.47 in 1.8 mi NNE 3.5 mph - N/A Rain Rain
7:17 PM 37.4 °F 33.8 °F 35.6 °F 93% 29.47 in 1.5 mi NE 4.6 mph - 0.09 in Rain Rain
7:37 PM 37.4 °F 33.8 °F 35.6 °F 93% 29.46 in 2.0 mi NE 4.6 mph - 0.15 in Rain Rain
7:57 PM 37.4 °F 33.8 °F 35.6 °F 93% 29.46 in 2.5 mi NE 4.6 mph - 0.01 in Rain Light Rain
8:17 PM 37.4 °F 33.8 °F 35.6 °F 93% 29.47 in 2.0 mi NE 4.6 mph - 0.04 in Rain Rain
8:37 PM 37.4 °F 34.9 °F 35.6 °F 93% 29.47 in 1.5 mi NNE 3.5 mph - 0.07 in Rain Light Rain
8:57 PM 37.4 °F 33.8 °F 35.6 °F 93% 29.46 in 1.8 mi NNE 4.6 mph - N/A Rain Rain
9:17 PM 37.4 °F 33.8 °F 35.6 °F 93% 29.47 in 3.0 mi North 4.6 mph - 0.03 in Rain Rain
9:37 PM 37.4 °F 33.8 °F 35.6 °F 93% 29.47 in 4.0 mi North 4.6 mph - 0.06 in Rain Light Rain
9:57 PM 37.4 °F 33.8 °F 35.6 °F 93% 29.47 in 4.0 mi North 4.6 mph - N/A   Light Drizzle
10:17 PM 35.6 °F 29.9 °F 35.6 °F 100% 29.47 in 4.0 mi North 6.9 mph - 0.02 in Rain Light Rain
10:38 PM 35.6 °F 29.9 °F 33.8 °F 93% 29.46 in 3.0 mi North 6.9 mph - 0.02 in Rain Light Rain
10:57 PM 35.6 °F 29.2 °F 33.8 °F 93% 29.46 in 4.0 mi North 8.1 mph - N/A   Light Drizzle
11:17 PM 35.6 °F 29.2 °F 33.8 °F 93% 29.46 in 5.0 mi North 8.1 mph - N/A   Overcast
11:37 PM 35.6 °F 29.9 °F 33.8 °F 93% 29.46 in 5.0 mi North 6.9 mph - N/A   Overcast
11:57 PM 35.6 °F 29.2 °F 33.8 °F 93% 29.46 in 7.0 mi North 8.1 mph - N/A   Overcast